Location: Newark
(41.9364°N, 2.8061°E)
Time: 17:38:01
(UTC+00:00)

X-37B - Pass Details

Date: 04 August 2021
Orbit: 381 x 393 km, 45.0° (Epoch: 29 August)

Event Time Altitude Azimuth Distance (km) Brightness Sun altitude
Exits shadow 03:48:40 12° 268° (W) 1,288 2.7 -10.1°
Maximum altitude 03:51:29 58° 348° (NNW) 449 1.0 -9.6°
Drops below altitude 10° 03:54:36 10° 69° (ENE) 1,399 4.9 -9.1°
Sets 03:56:41 0° 73° (ENE) 2,254 6.2 -8.8°
